• En España
  • Lista de países
  • Para 7 días
  • Temperatura del agua
  • Mapa Satelital
  • El tiempo en el mapa
  • Informadores
  • user-avatar
    Iniciar sesión

    Tiempo cada hora Elizavetino

    Hoy, 19 Abril, Jueves

    Tiempo Temperatura Precipitaciones Viento Presión Humedad
    00:00 +4°C° 0,1 mm 6 mps 735 mmHg 85%
    01:00 +5°C° 0,3 mm 5 mps 734 mmHg 86%
    02:00 +5°C° 0,3 mm 5 mps 734 mmHg 87%
    03:00 +4°C° 0 mm 6 mps 733 mmHg 88%
    04:00 +4°C° 0,7 mm 6 mps 732 mmHg 89%
    05:00 +4°C° 0,7 mm 6 mps 731 mmHg 90%
    06:00 +4°C° 0,7 mm 6 mps 731 mmHg 90%
    07:00 +4°C° 0,4 mm 6 mps 731 mmHg 90%
    08:00 +4°C° 0,4 mm 7 mps 730 mmHg 89%
    09:00 +5°C° 0,4 mm 7 mps 730 mmHg 88%
    10:00 +5°C° 0,5 mm 7 mps 730 mmHg 87%
    11:00 +6°C° 0,5 mm 7 mps 730 mmHg 86%
    12:00 +6°C° 0,5 mm 7 mps 730 mmHg 85%
    13:00 +8°C° 0,5 mm 7 mps 730 mmHg 81%
    14:00 +8°C° 0,5 mm 7 mps 730 mmHg 77%
    15:00 +9°C° 0,5 mm 7 mps 730 mmHg 73%
    16:00 +9°C° 0,4 mm 7 mps 730 mmHg 74%
    17:00 +8°C° 0,4 mm 7 mps 730 mmHg 75%
    18:00 +8°C° 0,4 mm 7 mps 731 mmHg 76%
    19:00 +8°C° 0,2 mm 7 mps 731 mmHg 78%
    20:00 +7°C° 0,2 mm 6 mps 732 mmHg 80%
    21:00 +7°C° 0,2 mm 6 mps 732 mmHg 82%
    22:00 +6°C° 0,1 mm 7 mps 733 mmHg 82%
    23:00 +6°C° 0,1 mm 7 mps 733 mmHg 82%

    Mañana, 20 Abril, Viernes

    Tiempo Temperatura Precipitaciones Viento Presión Humedad
    00:00 +6°C° 0,1 mm 7 mps 733 mmHg 82%
    01:00 +5°C° 0,1 mm 8 mps 734 mmHg 82%
    02:00 +5°C° 0,1 mm 8 mps 734 mmHg 82%
    03:00 +5°C° 0,1 mm 8 mps 735 mmHg 83%
    04:00 +4°C° 0 mm 8 mps 735 mmHg 83%
    05:00 +4°C° 0 mm 8 mps 736 mmHg 83%
    06:00 +2°C° 0 mm 8 mps 736 mmHg 83%
    07:00 +2°C° 0 mm 8 mps 737 mmHg 80%
    08:00 +4°C° 0 mm 8 mps 737 mmHg 77%
    09:00 +5°C° 0 mm 8 mps 738 mmHg 74%
    10:00 +5°C° 0 mm 8 mps 738 mmHg 71%
    11:00 +6°C° 0 mm 8 mps 739 mmHg 69%
    12:00 +6°C° 0 mm 8 mps 739 mmHg 66%
    13:00 +8°C° 0 mm 7 mps 739 mmHg 63%
    14:00 +9°C° 0 mm 7 mps 740 mmHg 60%
    15:00 +9°C° 0 mm 7 mps 740 mmHg 58%
    16:00 +9°C° 0 mm 6 mps 740 mmHg 59%
    17:00 +9°C° 0 mm 5 mps 740 mmHg 59%
    18:00 +9°C° 0 mm 5 mps 740 mmHg 60%
    19:00 +8°C° 0 mm 4 mps 741 mmHg 64%
    20:00 +8°C° 0 mm 3 mps 741 mmHg 67%
    21:00 +7°C° 0 mm 2 mps 741 mmHg 71%
    22:00 +7°C° 0 mm 2 mps 741 mmHg 74%
    23:00 +6°C° 0 mm 2 mps 741 mmHg 77%

    Pasado mañana, 21 Abril, Sábado

    Tiempo Temperatura Precipitaciones Viento Presión Humedad
    00:00 +6°C° 0 mm 1 mps 741 mmHg 80%
    01:00 +5°C° 0 mm 2 mps 740 mmHg 82%
    02:00 +4°C° 0 mm 2 mps 740 mmHg 83%
    03:00 +4°C° 0 mm 2 mps 740 mmHg 85%
    04:00 +3°C° 0 mm 3 mps 739 mmHg 86%
    05:00 +3°C° 0 mm 3 mps 739 mmHg 87%
    06:00 +3°C° 0 mm 4 mps 738 mmHg 88%
    07:00 +3°C° 0 mm 5 mps 737 mmHg 83%
    08:00 +5°C° 0 mm 6 mps 736 mmHg 78%
    09:00 +6°C° 0 mm 7 mps 735 mmHg 73%
    10:00 +9°C° 0 mm 8 mps 734 mmHg 68%
    11:00 +11°C° 0 mm 9 mps 733 mmHg 64%
    12:00 +13°C° 0 mm 10 mps 732 mmHg 60%
    13:00 +14°C° 0 mm 10 mps 731 mmHg 58%
    14:00 +16°C° 0 mm 10 mps 730 mmHg 56%
    15:00 +17°C° 0 mm 10 mps 729 mmHg 54%
    16:00 +16°C° 0,3 mm 10 mps 728 mmHg 58%
    17:00 +16°C° 0,3 mm 9 mps 727 mmHg 62%
    18:00 +15°C° 0,3 mm 9 mps 727 mmHg 66%
    19:00 +12°C° 0,7 mm 8 mps 727 mmHg 69%
    20:00 +11°C° 0,7 mm 8 mps 727 mmHg 71%
    21:00 +10°C° 0,7 mm 8 mps 727 mmHg 73%
    22:00 +7°C° 0 mm 8 mps 727 mmHg 72%
    23:00 +6°C° 0 mm 7 mps 727 mmHg 72%

    22 Abril, Domingo

    Tiempo Temperatura Precipitaciones Viento Presión Humedad
    00:00 +5°C° 0 mm 7 mps 727 mmHg 71%
    01:00 +4°C° 0 mm 7 mps 727 mmHg 74%
    02:00 +4°C° 0 mm 7 mps 727 mmHg 76%
    03:00 +4°C° 0 mm 7 mps 728 mmHg 78%
    04:00 +3°C° 0 mm 7 mps 728 mmHg 78%
    05:00 +3°C° 0 mm 7 mps 728 mmHg 79%
    06:00 +2°C° 0 mm 7 mps 728 mmHg 79%
    07:00 +2°C° 0 mm 8 mps 729 mmHg 75%
    08:00 +2°C° 0 mm 8 mps 729 mmHg 72%
    09:00 +4°C° 0 mm 8 mps 730 mmHg 68%
    10:00 +4°C° 0 mm 8 mps 730 mmHg 66%
    11:00 +4°C° 0 mm 8 mps 730 mmHg 64%
    12:00 +5°C° 0 mm 8 mps 731 mmHg 62%
    13:00 +5°C° 0 mm 7 mps 731 mmHg 59%
    14:00 +6°C° 0 mm 7 mps 731 mmHg 56%
    15:00 +8°C° 0 mm 7 mps 732 mmHg 54%
    16:00 +8°C° 0 mm 6 mps 732 mmHg 54%
    17:00 +8°C° 0 mm 6 mps 732 mmHg 54%
    18:00 +7°C° 0 mm 5 mps 732 mmHg 54%
    19:00 +6°C° 0 mm 4 mps 733 mmHg 59%
    20:00 +5°C° 0 mm 3 mps 733 mmHg 64%
    21:00 +5°C° 0 mm 2 mps 733 mmHg 69%
    22:00 +5°C° 0,1 mm 2 mps 733 mmHg 70%
    23:00 +4°C° 0,1 mm 2 mps 734 mmHg 71%

    23 Abril, Lunes

    Tiempo Temperatura Precipitaciones Viento Presión Humedad
    00:00 +4°C° 0,1 mm 2 mps 734 mmHg 72%
    01:00 +3°C° 0,3 mm 2 mps 734 mmHg 73%
    02:00 +3°C° 0,3 mm 2 mps 734 mmHg 74%
    03:00 +2°C° 0,3 mm 2 mps 734 mmHg 75%
    04:00 +1°C° 0 mm 3 mps 735 mmHg 74%
    05:00 0°C° 0 mm 3 mps 735 mmHg 74%
    06:00 0°C° 0 mm 3 mps 735 mmHg 74%
    07:00 0°C° 0 mm 3 mps 736 mmHg 68%
    08:00 +1°C° 0 mm 3 mps 736 mmHg 62%
    09:00 +1°C° 0 mm 4 mps 737 mmHg 56%
    10:00 +3°C° 0 mm 4 mps 737 mmHg 52%
    11:00 +3°C° 0 mm 3 mps 737 mmHg 48%
    12:00 +4°C° 0 mm 3 mps 737 mmHg 44%
    13:00 +5°C° 0 mm 3 mps 737 mmHg 43%
    14:00 +5°C° 0 mm 3 mps 737 mmHg 41%
    15:00 +7°C° 0 mm 3 mps 738 mmHg 40%
    16:00 +7°C° 0 mm 3 mps 738 mmHg 41%
    17:00 +5°C° 0 mm 3 mps 738 mmHg 41%
    18:00 +5°C° 0 mm 3 mps 738 mmHg 42%
    19:00 +5°C° 0 mm 2 mps 738 mmHg 45%
    20:00 +5°C° 0 mm 1 mps 738 mmHg 49%
    21:00 +3°C° 0 mm 0 mps 739 mmHg 52%
    22:00 +4°C° 0 mm 1 mps 739 mmHg 54%
    23:00 +3°C° 0 mm 1 mps 739 mmHg 55%

    24 Abril, Martes

    Tiempo Temperatura Precipitaciones Viento Presión Humedad
    00:00 +3°C° 0 mm 1 mps 739 mmHg 57%
    01:00 +3°C° 0 mm 1 mps 739 mmHg 59%
    02:00 +1°C° 0 mm 2 mps 739 mmHg 61%
    03:00 +1°C° 0 mm 2 mps 739 mmHg 64%
    04:00 +1°C° 0 mm 2 mps 739 mmHg 65%
    05:00 +1°C° 0 mm 2 mps 739 mmHg 66%
    06:00 +1°C° 0 mm 2 mps 739 mmHg 67%
    07:00 +3°C° 0 mm 2 mps 739 mmHg 62%
    08:00 +3°C° 0 mm 3 mps 739 mmHg 57%
    09:00 +5°C° 0 mm 3 mps 738 mmHg 51%
    10:00 +7°C° 0 mm 3 mps 738 mmHg 49%
    11:00 +7°C° 0 mm 4 mps 738 mmHg 46%
    12:00 +8°C° 0 mm 4 mps 738 mmHg 44%
    13:00 +10°C° 0 mm 4 mps 737 mmHg 45%
    14:00 +10°C° 0 mm 4 mps 737 mmHg 45%
    15:00 +11°C° 0 mm 4 mps 736 mmHg 46%
    16:00 +9°C° 0 mm 5 mps 736 mmHg 50%
    17:00 +9°C° 0 mm 5 mps 735 mmHg 53%
    18:00 +8°C° 0 mm 5 mps 735 mmHg 57%
    19:00 +8°C° 0,4 mm 5 mps 734 mmHg 59%
    20:00 +7°C° 0,4 mm 6 mps 733 mmHg 62%
    21:00 +5°C° 0,4 mm 6 mps 733 mmHg 64%
    22:00 +5°C° 1,2 mm 7 mps 732 mmHg 69%
    23:00 +4°C° 1,2 mm 7 mps 732 mmHg 74%
    Mostrar más